Flag for U.S.A. Weather past 2 weeks in Berkeley, California, U.S.A.

Now
65 °F

Partly cloudy.


Feels Like: 65 °F
Forecast: 63 / 77 °F
Wind: 10 mph from West

Location: Metro Oakland International Airport

Current Time: Aug 29, 2014 at 9:29:46 PM

Latest Report: Aug 29, 2014 at 8:53 PM


Visibility: 10 mi

Pressure: 29.91 "Hg

Humidity: 78%

Dew point: 58 °F

Location of BerkeleyLocation

Historic Weather in Berkeley — Graph

°F

Berkeley temperature yesterday

Maximum temperature yesterday: 74 °F (at 2:53 PM)
Minimum temperature yesterday: 60 °F (at 1:53 AM)
Average temperature yesterday: 65 °F

Past Weeks' High & Low Weather Summary

 TemperatureHumidityPressure
High76 °F (Aug 27, 12:53 PM)87% (Aug 15, 12:53 AM)30.08 "Hg (Aug 15, 12:53 AM)
Low59 °F (Aug 15, 12:53 AM)50% (Aug 26, 1:53 PM)29.81 "Hg (Aug 19, 6:53 PM)
Average65 °F72%29.94 "Hg
* Reported Aug 14 7:53 PM — Aug 29 7:53 PM, Berkeley, Weather by CustomWeather, © 2014

Note: Actual official high and low records may vary slightly from our data, if they occured in-between our weather recording intervals... More about our weather records

Advertising

Berkeley weather history for previous 24 hours

 ConditionsComfort  
Time TempWeatherWind HumidityBarometerVisibility
7:53 PM
Aug 29
65 °FPartly sunny.6 mph78%29.90 "Hg10 mi
6:53 PM67 °FBroken clouds.8 mph73%29.89 "Hg10 mi
5:53 PM67 °FBroken clouds.7 mph71%29.90 "Hg10 mi
4:53 PM68 °FBroken clouds.15 mph70%29.91 "Hg10 mi
3:53 PM69 °FBroken clouds.16 mph68%29.91 "Hg10 mi
2:53 PM69 °FBroken clouds.18 mph68%29.91 "Hg10 mi
1:53 PM70 °FPartly sunny.13 mph66%29.92 "Hg10 mi
11:53 AM67 °FBroken clouds.No wind73%29.93 "Hg10 mi
10:53 AM64 °FLow clouds.3 mph78%29.96 "Hg10 mi
9:53 AM63 °FLow clouds.3 mph81%29.96 "Hg10 mi
8:53 AM62 °FLow clouds.6 mph83%29.95 "Hg10 mi
7:53 AM62 °FLow clouds.5 mph83%29.94 "Hg10 mi
6:53 AM61 °FDrizzle. Low clouds.6 mph87%29.94 "Hg10 mi
5:53 AM61 °FLow clouds.7 mph83%29.94 "Hg10 mi
4:53 AM63 °FOvercast.10 mph78%29.95 "Hg10 mi
3:53 AM63 °FMostly cloudy.7 mph78%29.95 "Hg10 mi
2:53 AM62 °FOvercast.No wind83%29.96 "Hg10 mi
1:53 AM62 °FLow clouds.No wind83%29.96 "Hg10 mi
12:53 AM62 °FLow clouds.8 mph83%29.97 "Hg10 mi
11:53 PM
Aug 28
62 °FLow clouds.10 mph83%29.98 "Hg10 mi
10:53 PM62 °FPassing clouds.10 mph83%29.97 "Hg10 mi
9:53 PM62 °FPassing clouds.9 mph83%29.98 "Hg10 mi
Weather by CustomWeather, © 2014

See weather overviewHow to use our weather pages